Flag for Canada Weather past 2 weeks in Kenora, Ontario, Canada

Now
54 °F

Light rain. Fog.


Feels Like: 50 °F
Forecast: 53 / 63 °F
Wind: 10 mph from Southeast

Location: Kenora

Current Time: May 28, 2015 at 1:42:16 PM

Latest Report: May 28, 2015 at 1:00 PM


Visibility: 2 mi

Pressure: 29.94 "Hg

Humidity: 100%

Dew point: 54 °F

Location of KenoraLocation

Historic Weather in Kenora — Graph

°F

Kenora temperature yesterday

Maximum temperature yesterday: 66 °F (at 4:00 PM)
Minimum temperature yesterday: 54 °F (at 5:00 AM)
Average temperature yesterday: 60 °F

Past Weeks' High & Low Weather Summary

 TemperatureHumidityPressure
High82 °F (May 26, 4:00 PM)100% (May 14, 12:00 AM)30.41 "Hg (May 14, 12:00 AM)
Low28 °F (May 18, 7:00 AM)18% (May 23, 2:00 PM)29.70 "Hg (May 17, 5:00 PM)
Average55 °F61%30.02 "Hg
* Reported May 13 12:00 Noon — May 28 12:00 Noon, Kenora, Weather by CustomWeather, © 2015

Note: Actual official high and low records may vary slightly from our data, if they occured in-between our weather recording intervals... More about our weather records

Advertising

Kenora weather history for previous 24 hours

 ConditionsComfort  
Time TempWeatherWind HumidityBarometerVisibility
12:00 PM
Thu, May 28
54 °FLight rain. Fog.12 mph100%29.95 "Hg1 mi
11:00 AM54 °FLight rain. Fog.8 mph94%30.00 "Hg2 mi
10:45 AM54 °FLight rain. Fog.6 mph94%30.02 "Hg2 mi
10:00 AM54 °FLight rain. Fog.5 mph94%30.03 "Hg5 mi
9:00 AM54 °FLight rain. Cloudy.9 mph88%30.04 "Hg15 mi
8:00 AM55 °FMostly cloudy.9 mph72%30.01 "Hg15 mi
7:00 AM54 °FCloudy.8 mph77%30.03 "Hg15 mi
6:00 AM54 °FPartly sunny.8 mph72%30.03 "Hg15 mi
5:00 AM52 °FPassing clouds.9 mph77%30.03 "Hg15 mi
4:00 AM50 °FPassing clouds.8 mph76%30.04 "Hg15 mi
3:00 AM50 °FPassing clouds.8 mph76%30.06 "Hg15 mi
2:00 AM52 °FPassing clouds.9 mph72%30.07 "Hg15 mi
1:00 AM52 °FPassing clouds.8 mph72%30.08 "Hg15 mi
12:00 AM52 °FPassing clouds.7 mph72%30.08 "Hg15 mi
11:00 PM
Wed, May 27
55 °FPassing clouds.9 mph63%30.07 "Hg15 mi
10:00 PM57 °FPassing clouds.7 mph59%30.07 "Hg15 mi
9:00 PM59 °FScattered clouds.5 mph59%30.05 "Hg15 mi
8:00 PM63 °FScattered clouds.6 mph52%30.04 "Hg15 mi
7:00 PM64 °FScattered clouds.8 mph49%30.03 "Hg15 mi
6:00 PM66 °FScattered clouds.9 mph46%30.02 "Hg15 mi
5:00 PM66 °FScattered clouds.6 mph46%30.02 "Hg15 mi
4:00 PM66 °FPassing clouds.8 mph46%30.01 "Hg15 mi
3:00 PM64 °FPassing clouds.6 mph49%30.01 "Hg15 mi
2:00 PM64 °FPassing clouds.10 mph49%29.99 "Hg15 mi
1:00 PM63 °FPassing clouds.10 mph56%29.98 "Hg15 mi
Weather by CustomWeather, © 2015

See weather overviewHow to use our weather pages